Location: Chippewa Lake
(41.0698°N, 81.9010°W)
Time: 22:00:32
(UTC+00:00)

Meteor 2-5 Rocket - Pass Details

Date: 09 May 2021
Orbit: 833 x 912 km, 81.2° (Epoch: 17 June)

Event Time Altitude Azimuth Distance (km) Brightness Sun altitude
Exits shadow 08:46:47 12° 188° (S) 2,390 5.6 -15.0°
Maximum altitude 08:52:10 90° 306° (NW) 876 3.8 -14.2°
Drops below altitude 10° 08:57:52 10° 10° (N) 2,498 6.9 -13.4°
Sets 09:00:16 0° 10° (N) 3,427 7.7 -13.0°
